Bradford, PA

11:12 PM EDT on March 24, 2017 (GMT -0400)
Bradford Regional

Weather History for KBFD - July, 2014

Change the Weather History Date:

Monday, July 28, 2014

  Actual Average Record
Temperature  
Mean Temperature 61 °F 65 °F  
Max Temperature 67 °F 77 °F 86 °F (1964)
Min Temperature 54 °F 53 °F 37 °F (1971)
Degree Days  
Heating Degree Days 4 0  
Month to date heating degree days 70 1  
Since 1 June heating degree days 155 146  
Since 1 July heating degree days 70 1  
Cooling Degree Days 0 2  
Month to date cooling degree days 63 64  
Year to date cooling degree days 137 114  
Since 1 June cooling degree days 119 104  
Growing Degree Days 10 (Base 50)    
Moisture  
Dew Point 57 °F    
Average Humidity 92    
Maximum Humidity 100    
Minimum Humidity 84    
Precipitation  
Precipitation 0.41 in 0.14 in 2.50 in (1981)
Month to date precipitation 3.40 3.79  
Year to date precipitation 25.39 25.44  
Sea Level Pressure  
Sea Level Pressure 29.70 in    
Wind  
Wind Speed 8 mph (NW)    
Max Wind Speed 21 mph    
Max Gust Speed 27 mph    
Visibility 8 miles    
Events Rain    
T = Trace of Precipitation, MM = Missing Value Source: NWS Daily Summary

Daily Weather History Graph

Daily Weather History Graph

Search for Another Location

Airport or City:

Trip Planner

Search our weather history database for the weather conditions in past years. The results will help you decide how hot, cold, wet, or windy it might be!

Date:

Astronomy

Jul. 28, 2014 Rise Set
Actual Time 6:04 AM EDT 8:36 PM EDT
Civil Twilight 5:32 AM EDT 9:08 PM EDT
Nautical Twilight 4:53 AM EDT 9:48 PM EDT
Astronomical Twilight 4:08 AM EDT 10:32 PM EDT
Moon 7:46 AM EDT (7/28) 9:14 PM EDT (7/28)
Length of Visible Light 15h 35m
Length of Day
14h 32m
Waxing Crescent, 3% of the Moon is Illuminated
Jul 28
Waxing Crescent
Aug 3
First Quarter
Aug 10
Full
Aug 17
Last Quarter
Aug 25
New

Hourly Weather History & Observations

Time (EDT) Temp. Dew Point Humidity Pressure Visibility Wind Dir Wind Speed Gust Speed Precip Events Conditions
12:53 AM 62.1 °F 60.1 °F 93% 29.59 in 7.0 mi SSE 4.6 mph - 0.06 in Rain Light Rain
1:08 AM 62.1 °F 60.1 °F 93% 29.65 in 9.0 mi NW 4.6 mph - 0.01 in Rain Light Rain
1:20 AM 61.0 °F 59.0 °F 93% 29.64 in 10.0 mi NNW 4.6 mph - 0.01 in   Overcast
1:53 AM 61.0 °F 59.0 °F 93% 29.58 in 10.0 mi NW 3.5 mph - 0.01 in   Overcast
2:53 AM 61.0 °F 60.1 °F 97% 29.57 in 10.0 mi NNW 3.5 mph - N/A   Overcast
3:18 AM 61.0 °F 60.1 °F 97% 29.61 in 9.0 mi NNW 4.6 mph - 0.00 in   Overcast
3:38 AM 61.0 °F 60.1 °F 97% 29.61 in 4.0 mi NNW 4.6 mph - 0.01 in Rain Light Rain
3:51 AM 60.8 °F 60.8 °F 100% 29.61 in 6.0 mi North 3.5 mph - 0.02 in Rain Light Rain
3:53 AM 61.0 °F 60.1 °F 97% 29.56 in 6.0 mi North 3.5 mph - 0.02 in Rain Light Rain
4:26 AM 61.0 °F 59.0 °F 93% 29.61 in 7.0 mi NW 4.6 mph - 0.02 in Rain Light Rain
4:34 AM 61.0 °F 59.0 °F 93% 29.61 in 8.0 mi NNW 4.6 mph - 0.02 in Rain Light Rain
4:42 AM 61.0 °F 59.0 °F 93% 29.60 in 9.0 mi NW 3.5 mph - 0.02 in   Overcast
4:53 AM 61.0 °F 60.1 °F 97% 29.55 in 9.0 mi NW 3.5 mph - 0.02 in   Overcast
5:12 AM 61.0 °F 59.0 °F 93% 29.61 in 10.0 mi WNW 4.6 mph - N/A   Overcast
5:51 AM 60.8 °F 59.0 °F 94% 29.62 in 10.0 mi West 5.8 mph - 0.01 in Rain Light Rain
5:53 AM 61.0 °F 59.0 °F 93% 29.57 in 7.0 mi West 6.9 mph - 0.01 in Rain Light Rain
6:03 AM 61.0 °F 59.0 °F 93% 29.62 in 3.0 mi WNW 8.1 mph - 0.02 in Rain Heavy Rain
6:17 AM 61.0 °F 59.0 °F 93% 29.62 in 10.0 mi WNW 9.2 mph - 0.03 in Rain Light Rain
6:30 AM 61.0 °F 59.0 °F 93% 29.63 in 10.0 mi West 8.1 mph - 0.03 in   Overcast
6:38 AM 61.0 °F 57.9 °F 90% 29.62 in 8.0 mi West 6.9 mph - 0.03 in Rain Light Rain
6:53 AM 60.1 °F 57.9 °F 93% 29.59 in 5.0 mi West 11.5 mph - 0.04 in Rain Light Rain
7:49 AM 60.8 °F 57.2 °F 88% 29.64 in 10.0 mi West 10.4 mph - 0.00 in   Overcast
7:53 AM 60.1 °F 57.0 °F 90% 29.61 in 10.0 mi West 11.5 mph - 0.00 in   Overcast
8:51 AM 60.8 °F 57.2 °F 88% 29.65 in 10.0 mi WNW 11.5 mph 19.6 mph N/A   Overcast
8:53 AM 61.0 °F 57.0 °F 87% 29.62 in 10.0 mi West 9.2 mph - N/A   Overcast
9:08 AM 61.0 °F 57.9 °F 90% 29.65 in 10.0 mi West 11.5 mph - N/A   Overcast
9:35 AM 61.0 °F 57.0 °F 87% 29.66 in 10.0 mi WNW 15.0 mph 20.7 mph N/A   Overcast
10:53 AM 64.0 °F 57.9 °F 80% 29.64 in 10.0 mi West 9.2 mph - 0.00 in Rain Light Rain
11:21 AM 63.0 °F 57.9 °F 84% 29.67 in 10.0 mi West 8.1 mph - 0.00 in   Overcast
11:32 AM 64.9 °F 59.0 °F 81% 29.67 in 10.0 mi West 6.9 mph - 0.00 in   Mostly Cloudy
11:40 AM 66.0 °F 57.9 °F 75% 29.67 in 10.0 mi West 11.5 mph 19.6 mph 0.00 in   Mostly Cloudy
11:51 AM 66.2 °F 59.0 °F 78% 29.67 in 10.0 mi West 10.4 mph 17.3 mph 0.00 in   Mostly Cloudy
11:53 AM 66.9 °F 59.0 °F 76% 29.63 in 10.0 mi West 10.4 mph 17.3 mph 0.00 in   Mostly Cloudy
11:56 AM 66.0 °F 57.9 °F 75% 29.67 in 10.0 mi West 9.2 mph - N/A   Mostly Cloudy
12:04 PM 63.0 °F 57.9 °F 84% 29.69 in 2.0 mi NNW 17.3 mph 24.2 mph 0.09 in Rain Rain
12:07 PM 61.0 °F 57.0 °F 87% 29.69 in 0.8 mi WNW 13.8 mph 24.2 mph 0.21 in Rain Heavy Rain
12:17 PM 61.0 °F 57.0 °F 87% 29.69 in 2.0 mi NNW 9.2 mph - 0.27 in Rain Light Rain
12:22 PM 61.0 °F 57.0 °F 87% 29.69 in 10.0 mi NNW 8.1 mph - 0.28 in Rain Light Rain
12:50 PM 62.6 °F 59.0 °F 88% 29.70 in 10.0 mi NNW 6.9 mph - 0.28 in Rain Light Rain
12:53 PM 62.1 °F 57.9 °F 86% 29.67 in 10.0 mi North 6.9 mph - 0.28 in   Overcast
1:28 PM 61.0 °F 57.0 °F 87% 29.71 in 3.0 mi North 13.8 mph 23.0 mph 0.02 in Rain Light Rain
3:08 PM 60.1 °F 55.9 °F 86% 29.75 in 9.0 mi NNW 15.0 mph - 0.00 in   Overcast
3:35 PM 60.1 °F 55.0 °F 83% 29.77 in 10.0 mi NNW 12.7 mph - 0.00 in   Overcast
3:46 PM 59.0 °F 55.9 °F 90% 29.78 in 3.0 mi NW 12.7 mph - 0.01 in Rain Light Rain
3:53 PM 57.9 °F 55.9 °F 93% 29.76 in 4.0 mi NW 11.5 mph - 0.01 in Rain Light Rain
4:53 PM 57.0 °F 55.0 °F 93% 29.79 in 9.0 mi NW 12.7 mph - 0.00 in Rain Light Rain
5:38 PM 57.0 °F 55.0 °F 93% 29.83 in 7.0 mi NNW 10.4 mph - 0.00 in Rain Light Rain
6:24 PM 57.0 °F 53.1 °F 87% 29.85 in 10.0 mi North 9.2 mph - N/A   Overcast
6:53 PM 57.0 °F 54.0 °F 89% 29.83 in 10.0 mi NW 8.1 mph - N/A   Overcast
7:44 PM 57.0 °F 54.0 °F 89% 29.86 in 8.0 mi WNW 5.8 mph - 0.00 in Rain Light Rain
7:53 PM 57.0 °F 55.0 °F 93% 29.84 in 10.0 mi NW 5.8 mph - 0.00 in Rain Light Rain
8:00 PM 57.0 °F 54.0 °F 89% 29.86 in 10.0 mi WNW 4.6 mph - 0.00 in   Overcast
8:53 PM 55.9 °F 54.0 °F 93% 29.85 in 10.0 mi West 4.6 mph - 0.00 in   Overcast
9:17 PM 57.0 °F 54.0 °F 89% 29.88 in 10.0 mi WNW 6.9 mph - 0.01 in Rain Light Rain
9:34 PM 57.0 °F 54.0 °F 89% 29.88 in 10.0 mi WNW 6.9 mph - 0.01 in   Overcast
9:53 PM 57.0 °F 54.0 °F 89% 29.87 in 10.0 mi West 4.6 mph - 0.01 in   Overcast
10:51 PM 55.4 °F 53.6 °F 94% 29.90 in 10.0 mi NW 8.1 mph - N/A   Overcast
10:53 PM 55.9 °F 53.1 °F 90% 29.88 in 10.0 mi NW 8.1 mph - N/A   Overcast
11:05 PM 55.9 °F 52.0 °F 87% 29.89 in 10.0 mi NNW 9.2 mph - N/A   Overcast
11:29 PM 55.9 °F 51.1 °F 84% 29.90 in 10.0 mi NNW 8.1 mph - N/A   Overcast
11:49 PM 55.4 °F 51.8 °F 88% 29.90 in 10.0 mi North 5.8 mph - N/A   Overcast
11:53 PM 55.0 °F 51.1 °F 86% 29.88 in 10.0 mi NNW 6.9 mph - N/A   Overcast